Погода в Находе

Чехия     50°24′38″N   16°09′40″E
темп.,
°C
ветер,
м/с
пор.,
м/с
влажн.,
%
обл.,
%
осадки,
мм/ч
давл.,
гПа
погр.,
м
7 мая, пт
пт723:00+5юз3798100 2.3 1007833
02:00+4юз3698100 7.6 1006746
05:00+5ююз41198100 0.6 1003625
08:00+6з5109551 0.9 1005839
11:00+7з6782100 0.3 1007967
14:00+8зсз686478 0.6 10081654
17:00+8зсз6105958 0.6 10111990
20:00+4зсз49723 0.9 1014475
8 мая, сб
сб823:000юз258918 0.0 1017108
02:00−1юз11955 0.0 101913
05:00−2ююз229711 0.0 102122
08:00+3юз24805 0.0 1021350
11:00+8зюз575480 0.1 10211802
14:00+10зюз664975 0.2 10201964
17:00+10зюз454749 0.1 10191842
20:00+6ююз226796 0.1 102011
9 мая, вс
вс923:00+4ююв23697 0.0 102030
02:00+3ю138033 0.0 102037
05:00+3ю23885 0.0 101940
08:00+8ююз496989 0.0 1018387
11:00+13ю69585 0.0 1017657
14:00+16ю795685 0.0 1016969
17:00+16ю7116060 0.0 1015912
20:00+12ю6156913 0.0 1015738
10 мая, пн
пн1023:00+10ю617655 0.0 1015796
02:00+10ю618654 0.0 1014807
05:00+10ююв517655 0.0 1012817
08:00+12ю7187092 0.0 1013910
11:00+15ю912655 0.0 1013938
14:00+18ю796080 0.0 10131071
17:00+19ю68652 0.0 10131130
20:00+15ю398356 0.0 1013302
11 мая, вт
вт1123:00+13ююв378564 0.0 1012271
02:00+14ююв5148025 0.0 1011620
05:00+13ю515775 0.0 1009589
08:00+15ю71771100 0.0 1009797
11:00+17ю9136576 0.0 1009955
14:00+18ю8136777 0.0 10091130
17:00+20ю714670 0.0 10071223
20:00+16ююв616761 0.0 1006919